Alta, CA

7:01 PM PST on February 24, 2017 (GMT -0800)
Blue Canyon-Nyack

Weather History for KBLU - October, 2012

Change the Weather History Date:

Thursday, October 18, 2012

  Actual Average Record
Temperature  
Mean Temperature 65 °F -  
Max Temperature 75 °F 62 °F 80 °F (1974)
Min Temperature 57 °F 45 °F 25 °F (1949)
Growing Degree Days 15 (Base 50)    
Moisture  
Dew Point 29 °F    
Average Humidity 27    
Maximum Humidity 46    
Minimum Humidity 16    
Precipitation  
Precipitation 0.00 in - - ()
Sea Level Pressure  
Sea Level Pressure 29.95 in    
Wind  
Wind Speed 5 mph (SE)    
Max Wind Speed 16 mph    
Max Gust Speed 23 mph    
Visibility 10 miles    
Events      
Averages and records for this station are not official NWS values.
T = Trace of Precipitation, MM = Missing Value Source: NWS Daily Summary

Daily Weather History Graph

Daily Weather History Graph

Search for Another Location

Airport or City:

Trip Planner

Search our weather history database for the weather conditions in past years. The results will help you decide how hot, cold, wet, or windy it might be!

Date:

Astronomy

Oct. 18, 2012 Rise Set
Actual Time 7:16 AM PDT 6:18 PM PDT
Civil Twilight 6:49 AM PDT 6:45 PM PDT
Nautical Twilight 6:17 AM PDT 7:17 PM PDT
Astronomical Twilight 5:46 AM PDT 7:48 PM PDT
Moon 11:02 AM PDT (10/18) 8:59 PM PDT (10/18)
Length of Visible Light 11h 56m
Length of Day
11h 02m
Waxing Crescent, 15% of the Moon is Illuminated
Oct 18
Waxing Crescent
Oct 21
First Quarter
Oct 29
Full
Nov 6
Last Quarter
Nov 13
New

Hourly Weather History & Observations

Time (PDT) Temp. Dew Point Humidity Pressure Visibility Wind Dir Wind Speed Gust Speed Precip Events Conditions
12:52 AM 62.1 °F 18.0 °F 18% 29.88 in 10.0 mi Calm Calm - N/A   Clear
1:52 AM 63.0 °F 17.1 °F 17% 29.90 in 10.0 mi ENE 3.5 mph - N/A   Clear
2:52 AM 64.0 °F 17.1 °F 16% 29.89 in 10.0 mi NE 3.5 mph - N/A   Clear
3:52 AM 64.0 °F 17.1 °F 16% 29.89 in 10.0 mi East 3.5 mph - N/A   Clear
4:52 AM 64.9 °F 19.0 °F 17% 29.90 in 10.0 mi Calm Calm - N/A   Clear
5:52 AM 64.0 °F 19.9 °F 18% 29.92 in 10.0 mi East 4.6 mph - N/A   Clear
6:52 AM 63.0 °F 23.0 °F 22% 29.94 in 10.0 mi East 4.6 mph - N/A   Clear
7:52 AM 64.0 °F 25.0 °F 23% 29.95 in 10.0 mi ESE 3.5 mph - N/A   Clear
8:52 AM 68.0 °F 28.0 °F 22% 29.95 in 10.0 mi SE 4.6 mph - N/A   Clear
9:52 AM 71.1 °F 28.9 °F 21% 29.96 in - Variable 5.8 mph - N/A   Unknown
10:52 AM 71.1 °F 30.9 °F 23% 29.98 in 10.0 mi South 16.1 mph 23.0 mph N/A   Unknown
11:52 AM 73.0 °F 30.9 °F 21% 29.96 in 10.0 mi South 11.5 mph 20.7 mph N/A   Clear
12:52 PM 73.0 °F 32.0 °F 22% 29.98 in 10.0 mi South 9.2 mph - N/A   Clear
1:52 PM 73.9 °F 33.1 °F 22% 29.95 in 10.0 mi South 10.4 mph - N/A   Clear
2:52 PM 73.9 °F 32.0 °F 21% 29.94 in 10.0 mi South 12.7 mph - N/A   Clear
3:52 PM 72.0 °F 30.0 °F 21% 29.96 in 10.0 mi SSW 12.7 mph 19.6 mph N/A   Clear
4:52 PM 70.0 °F 35.1 °F 28% 29.96 in 10.0 mi South 12.7 mph - N/A   Clear
5:52 PM 66.9 °F 36.0 °F 32% 29.97 in 10.0 mi South 9.2 mph - N/A   Clear
6:52 PM 63.0 °F 37.0 °F 38% 30.00 in 10.0 mi SSE 5.8 mph - N/A   Clear
7:52 PM 60.1 °F 37.0 °F 42% 30.02 in 10.0 mi SE 3.5 mph - N/A   Clear
8:52 PM 60.1 °F 37.0 °F 42% 30.01 in 10.0 mi SSE 4.6 mph - N/A   Clear
9:52 PM 57.9 °F 37.0 °F 46% 30.01 in 10.0 mi Calm Calm - N/A   Clear
10:52 PM 59.0 °F 37.0 °F 44% 30.01 in 10.0 mi ESE 3.5 mph - N/A   Clear
11:52 PM 59.0 °F 37.0 °F 44% 29.99 in 10.0 mi Calm Calm - N/A   Clear